This is the latest recevied weather packets stored in our database for station/object XQ6AK-15. If no packets are shown the sender has not sent any weather packets the latest 10 day(s).
| Time | Temp. | Humidity | Pressure | Rain* | Wind** | Luminosity | Snow |
|---|---|---|---|---|---|---|---|
| 1777665541 | 12.22° C | 77% | 1023.4 hPa | 0 mm | - | 98 W/m² | - |
| 1777665236 | 11.67° C | 77% | 1023.3 hPa | 0 mm | - | 74 W/m² | - |
| 1777664932 | 11.67° C | 76% | 1023.3 hPa | 0 mm | - | 61 W/m² | - |
| 1777664628 | 11.67° C | 74% | 1022.9 hPa | 0 mm | - | 84 W/m² | - |
| 1777664324 | 12.22° C | 73% | 1022.9 hPa | 0 mm | - | 97 W/m² | - |
| 1777664023 | 12.78° C | 72% | 1022.9 hPa | 0 mm | - | 123 W/m² | - |
| 1777663721 | 13.33° C | 63% | 1022.8 hPa | 0 mm | - | 140 W/m² | - |
| 1777663418 | 13.33° C | 64% | 1022.7 hPa | 0 mm | - | 144 W/m² | - |
| 1777663114 | 13.89° C | 63% | 1022.6 hPa | 0 mm | - | 144 W/m² | - |
| 1777662812 | 13.89° C | 62% | 1022.5 hPa | 0 mm | - | 130 W/m² | - |
| 1777662508 | 13.89° C | 67% | 1022.5 hPa | 0 mm | - | 158 W/m² | - |
| 1777662205 | 13.33° C | 63% | 1022.6 hPa | 0 mm | - | 180 W/m² | - |
| 1777661900 | 13.33° C | 70% | 1022.3 hPa | 0 mm | - | 138 W/m² | - |
| 1777661596 | 12.78° C | 68% | 1022.3 hPa | 0 mm | - | 141 W/m² | - |
| 1777661292 | 12.78° C | 65% | 1022.3 hPa | 0 mm | - | 114 W/m² | - |
| 1777660988 | 12.78° C | 74% | 1022.2 hPa | 0 mm | - | 108 W/m² | - |
| 1777660684 | 12.78° C | 71% | 1022.3 hPa | 0 mm | - | 103 W/m² | - |
| 1777660381 | 12.78° C | 67% | 1022.4 hPa | 0 mm | - | 72 W/m² | - |
| 1777660077 | 13.33° C | 64% | 1022.4 hPa | 0 mm | - | 98 W/m² | - |
| 1777659774 | 13.89° C | 61% | 1022.3 hPa | 0 mm | - | 154 W/m² | - |
| 1777659471 | 13.89° C | 62% | 1022.3 hPa | 0 mm | - | 303 W/m² | - |
| 1777659168 | 13.33° C | 66% | 1022.1 hPa | 0 mm | - | 258 W/m² | - |
| 1777658866 | 14.44° C | 67% | 1022.1 hPa | 0 mm | - | 185 W/m² | - |
| 1777658562 | 15° C | 63% | 1022.3 hPa | 0 mm | - | 464 W/m² | - |
| 1777658258 | 14.44° C | 68% | 1022.1 hPa | 0 mm | - | 360 W/m² | - |
* Rain latest hour (hover to see other rain measurements)
** Current wind speed in m/s (hover to see current wind gust speed)